Wind_Speed
2 2 4 7 7 6 5 6 3 8 8 3 8 0 10 10 8 4 13 10 16 17 16 13 14 14 14 14 15 15 13 13 13 14 14 14 14 14 14 14 13 12 11 11 10 10 10 10 10
2 4 7 4 6 6 8 9 8 5 8 9 8 4 4 7 10 11 15 12 16 16 15 13 14 14 14 15 15 16 15 13 11 12 12 12 12 11 11 11 10 10 9 9 8 9 9 9 9
3 4 5 4 3 1 3 10 8 11 7 8 5 6 5 5 11 13 13 20 17 16 14 13 13 15 13 15 15 15 14 12 10 10 10 10 9 9 8 8 7 7 7 7 7 7 7 8 9
5 6 5 9 4 3 5 5 9 11 9 5 6 12 10 14 6 9 19 19 17 16 14 13 13 14 12 13 14 14 13 10 8 7 7 7 7 6 5 5 5 6 6 6 6 7 8 8 9
8 4 9 8 4 1 3 6 7 7 6 9 8 10 7 7 12 20 19 17 17 14 13 13 13 11 12 11 12 12 11 9 7 6 5 4 4 3 4 4 4 5 6 6 6 7 8 8 8
7 4 9 9 5 2 4 9 7 6 7 8 10 12 6 6 16 18 17 15 15 15 13 12 12 11 10 10 12 11 9 7 6 5 4 2 1 2 2 3 4 5 5 5 6 6 7 7 7
13 8 14 5 6 5 3 10 10 8 9 5 10 7 6 13 17 17 16 14 15 13 11 10 10 10 11 9 9 9 9 8 6 4 3 2 1 0 2 4 4 5 6 6 6 6 6 6 7
9 8 14 11 8 2 6 14 9 9 7 8 1 7 11 19 19 18 17 14 13 11 10 10 9 9 9 9 9 8 9 8 6 5 4 3 2 4 5 6 8 7 6 5 5 5 5 4 5
8 10 13 13 10 7 12 12 7 4 12 5 3 8 23 26 23 20 18 15 12 10 10 10 10 10 9 9 8 7 7 6 5 3 4 1 2 3 3 5 6 7 7 8 8 8 8 7 8
12 13 18 11 6 3 13 12 13 11 13 10 13 20 26 25 23 21 18 17 14 12 12 11 10 10 10 9 8 7 8 6 5 4 4 3 4 4 4 3 5 5 5 6 6 7 8 7 5
17 17 16 9 7 6 8 11 12 11 13 14 17 19 21 22 20 18 17 15 14 12 10 10 10 10 10 9 8 8 7 7 5 4 3 5 4 5 4 5 4 4 6 4 6 6 5 6 7
14 16 12 10 6 8 10 10 9 11 6 9 17 19 20 18 18 16 13 12 12 12 9 9 9 9 10 9 8 7 7 7 6 3 2 3 4 4 3 4 5 5 6 7 7 7 7 7 7
16 12 14 10 10 9 6 10 7 8 8 17 17 16 16 15 16 15 14 13 11 11 9 9 9 9 10 9 6 6 6 6 5 4 1 2 3 3 2 2 3 4 6 7 8 8 9 9 8
9 13 9 8 9 5 12 6 11 9 12 16 16 15 13 13 15 15 14 13 12 10 8 7 7 7 7 8 8 7 6 5 5 4 3 3 2 1 1 2 3 4 6 7 8 9 10 9 9
5 13 9 10 9 6 12 11 13 15 14 16 16 13 12 11 15 15 13 12 10 8 7 7 7 8 8 9 10 8 7 7 6 6 7 6 4 3 2 1 3 5 7 8 9 10 10 10 11
13 14 14 15 10 5 12 18 14 15 16 15 15 13 12 10 12 12 11 11 9 8 8 7 8 8 9 9 9 9 7 7 7 6 6 7 6 5 4 2 4 6 7 8 10 11 12 11 11
11 13 19 13 13 8 15 18 19 16 15 15 15 15 13 13 12 11 11 10 9 8 8 9 9 9 10 9 8 9 9 7 6 6 5 6 6 6 4 4 5 7 7 8 9 8 9 9 11
12 16 9 17 12 13 16 18 12 13 15 15 16 17 15 14 14 14 12 11 10 9 8 9 9 10 10 9 9 8 7 7 6 5 5 6 5 6 4 5 6 6 5 6 8 6 8 8 11
7 12 14 11 11 15 19 19 14 12 14 16 17 17 17 17 16 15 13 11 11 10 10 10 11 10 9 9 9 8 6 6 6 6 7 6 7 7 7 5 6 7 8 9 11 5 8 10 14
12 13 15 11 8 12 17 23 22 17 17 17 17 18 18 17 16 18 16 14 13 12 11 11 12 12 10 8 7 6 8 7 7 8 7 8 10 10 9 8 9 9 8 11 12 12 6 9 16
14 15 13 15 7 14 15 19 22 19 16 17 17 18 19 20 19 18 19 17 14 13 11 11 12 12 10 10 9 10 9 8 7 7 5 10 10 11 11 9 9 12 9 10 12 11 11 8 11
15 14 16 16 14 16 19 17 21 21 20 20 20 20 21 22 20 19 20 18 16 14 12 11 10 11 10 10 10 10 7 7 6 6 7 9 9 11 10 8 9 15 9 10 9 10 12 10 11
15 15 14 15 16 17 18 12 16 19 20 22 22 23 24 22 21 19 21 20 18 16 14 13 12 11 10 9 8 9 8 12 9 9 9 9 10 10 8 9 11 10 8 10 11 12 13 12 11
11 9 13 12 14 17 20 18 16 18 19 18 20 24 22 21 20 19 21 21 20 18 16 15 14 13 12 11 10 10 12 10 10 9 7 7 7 8 8 9 9 9 9 9 10 12 13 12 12
15 15 13 15 15 16 19 20 16 17 12 12 12 11 20 19 19 19 19 22 22 20 18 17 16 15 13 13 12 11 11 9 8 7 7 7 7 7 7 7 7 8 8 8 9 10 11 11 11
14 14 15 23 17 18 18 18 15 1 4 7 9 11 14 19 19 19 21 22 22 20 19 17 16 16 14 13 12 10 10 9 7 5 6 7 7 8 7 8 8 8 7 7 7 8 9 9 9
14 9 11 16 20 18 20 21 9 7 5 2 4 8 14 18 19 19 22 21 21 20 18 17 17 15 14 14 12 10 8 7 6 5 5 7 7 7 7 7 7 7 7 6 6 8 9 9 10
14 13 12 11 19 23 19 19 11 7 4 5 3 8 13 16 18 17 19 20 20 19 18 17 16 15 14 13 11 11 9 7 5 4 5 7 8 7 6 5 5 6 6 6 6 7 10 10 9
11 13 16 16 13 17 18 12 9 9 7 6 6 8 13 16 17 16 18 19 19 19 18 16 15 13 12 11 10 10 9 6 4 1 4 5 5 7 5 5 5 5 6 6 7 8 8 9 9
16 21 22 15 18 17 15 14 7 6 5 3 8 11 14 17 17 16 19 19 19 18 17 15 12 10 9 8 9 10 10 7 5 3 3 5 6 5 3 5 6 6 7 7 8 8 7 8 8
Wind_Direction
346 258 257 245 235 237 108 102 31 130 134 92 126 346 49 31 2 32 143 123 139 138 144 146 141 141 139 135 131 131 131 125 126 119 118 115 111 106 100 95 89 81 73 67 64 63 58 51 44
257 280 235 279 252 221 126 119 119 83 98 112 116 144 71 75 54 109 145 143 144 139 143 144 145 146 142 138 137 137 134 132 124 120 119 116 111 105 100 93 83 76 65 59 55 51 43 40 32
232 270 269 261 278 227 125 133 128 131 149 164 111 54 55 69 117 136 124 148 143 141 143 150 148 148 149 141 142 144 141 134 131 126 123 119 114 106 97 89 80 71 61 49 38 34 27 24 21
275 204 223 249 179 150 328 130 159 137 121 128 128 100 93 47 118 129 138 144 141 140 142 150 149 146 144 141 145 149 145 137 132 130 127 121 116 110 98 82 67 55 45 36 24 15 9 7 8
244 253 260 251 212 56 217 154 167 139 127 139 162 125 91 38 106 130 137 143 139 140 140 149 146 148 147 149 148 152 153 147 143 140 131 124 113 94 76 57 52 48 31 22 16 0 355 354 352
244 269 244 231 200 129 206 179 189 171 135 115 138 123 78 128 136 137 141 142 142 140 144 150 152 152 148 152 156 156 157 159 161 156 150 149 111 72 49 42 28 22 16 9 355 348 339 340 341
248 242 257 275 263 180 216 182 194 168 140 132 140 128 115 149 139 140 137 141 141 141 143 148 153 156 158 158 165 170 175 171 170 175 191 215 248 334 20 23 3 358 354 347 339 333 332 333 332
254 264 256 232 237 120 143 176 159 182 82 128 143 157 157 145 144 143 135 144 133 138 149 149 156 161 159 167 172 187 190 185 188 194 223 223 329 343 352 33 348 9 17 26 23 19 20 14 359
241 238 244 229 230 122 155 165 171 108 144 139 145 129 130 149 148 142 144 144 148 150 159 160 163 166 162 169 180 187 197 203 200 223 263 302 246 285 325 326 12 33 47 53 53 43 33 37 16
219 225 234 250 248 251 171 187 158 170 154 133 113 111 137 150 155 155 158 157 159 163 167 172 176 176 177 177 179 186 194 194 195 210 222 237 254 260 293 302 351 10 26 26 20 21 27 11 344
219 244 236 236 262 287 197 199 162 197 188 160 150 144 150 154 158 161 164 159 166 160 165 173 178 183 185 181 183 191 198 201 208 215 228 245 249 255 267 278 291 309 329 314 332 326 328 329 323
240 231 261 248 275 255 234 185 197 208 69 126 145 155 154 158 163 158 146 158 159 163 162 171 174 178 183 181 182 190 196 198 198 201 220 240 236 242 254 276 299 317 319 326 326 323 325 324 315
228 233 222 254 261 244 239 194 161 132 116 120 137 153 158 160 152 154 159 153 152 155 158 167 169 172 173 166 169 167 175 179 177 150 131 184 236 242 266 291 315 330 332 330 326 325 327 324 319
213 233 235 232 229 210 205 175 170 147 144 139 146 148 156 158 153 153 162 157 155 149 151 158 162 163 163 149 140 141 140 134 124 101 91 89 146 170 289 322 334 338 339 332 326 322 324 320 314
222 212 203 215 205 207 222 197 216 149 161 157 149 149 149 161 161 166 160 155 155 151 142 147 152 144 143 136 130 133 130 125 112 95 72 57 69 52 73 0 2 345 338 335 328 323 317 311 308
210 229 220 180 202 182 203 219 147 161 167 169 158 158 155 160 169 163 163 156 160 158 152 150 151 146 141 140 132 128 116 112 107 98 77 61 44 38 35 20 7 345 340 336 331 326 320 314 313
208 226 222 167 199 179 212 227 141 168 177 175 174 172 167 164 171 171 171 166 168 165 160 155 153 150 145 135 133 123 117 111 102 94 82 62 47 38 41 17 2 1 347 341 339 333 334 331 327
217 229 231 242 173 219 208 232 144 178 190 185 186 178 178 180 179 174 173 167 169 174 171 172 163 162 154 142 137 131 119 107 96 75 67 72 51 36 53 12 15 24 15 3 1 4 355 352 335
288 257 251 225 224 220 233 221 180 183 205 197 194 192 190 186 172 178 174 171 169 172 183 178 174 176 164 164 168 159 149 121 100 78 58 58 60 51 53 56 49 46 48 42 27 18 17 11 359
241 245 244 250 273 223 237 236 243 177 211 212 203 198 196 187 177 181 179 179 180 180 184 186 183 183 176 176 171 162 150 123 108 91 68 65 66 69 66 73 74 69 43 41 39 33 30 28 24
236 246 247 253 196 227 257 251 236 205 217 219 215 208 202 196 188 184 184 185 180 181 185 185 184 182 180 174 154 140 132 121 107 92 91 73 72 74 73 71 85 73 56 44 43 40 40 41 44
254 212 256 249 237 247 205 253 227 223 213 219 218 213 207 201 195 185 185 182 177 171 169 168 167 171 171 170 171 169 167 150 129 126 113 90 82 73 72 72 68 77 63 57 47 45 50 50 48
251 260 240 252 252 248 241 254 258 251 224 208 224 220 214 200 194 186 184 177 169 163 160 158 157 156 157 162 167 164 154 144 141 131 118 99 79 77 82 75 71 81 79 70 63 57 55 54 55
256 229 234 252 254 245 242 254 243 247 221 242 239 222 211 199 188 183 180 167 160 157 152 147 143 139 139 137 139 143 141 143 142 137 127 118 105 85 78 79 83 91 79 71 63 60 58 57 55
235 246 251 238 232 246 248 242 244 249 272 225 265 301 192 188 182 180 173 167 160 155 150 144 140 133 132 128 127 130 129 126 132 146 139 135 124 100 80 83 87 84 78 77 75 67 62 61 60
304 251 257 265 260 265 255 245 246 266 35 317 281 265 173 178 181 178 176 166 159 154 151 144 139 134 133 127 124 124 127 127 132 131 138 134 126 115 92 84 89 83 73 70 76 69 69 65 64
285 251 284 291 280 276 273 267 154 143 119 352 287 198 172 179 174 172 173 164 155 153 149 144 141 138 138 135 130 124 114 113 116 125 130 132 125 118 95 86 94 89 77 68 67 64 62 59 54
250 288 276 238 262 266 265 264 287 134 79 91 139 175 172 173 167 169 165 159 153 150 148 144 143 141 138 133 129 118 109 103 108 130 138 128 139 130 110 87 84 92 86 67 67 55 50 53 49
267 248 247 270 273 282 278 282 61 79 67 104 142 165 168 168 168 163 160 153 150 150 148 146 142 141 141 138 130 119 107 96 82 82 130 129 136 142 130 111 97 81 81 76 68 66 52 52 44
283 286 286 267 263 252 261 277 69 78 46 110 141 153 163 163 163 159 156 153 148 150 147 146 141 129 113 118 125 125 123 97 79 82 155 158 140 124 146 120 117 105 86 76 68 63 57 49 39
Height
788 788 787 782 783 762 780 784 773 781 779 773 771 780 787 789 797 811 816 819 820 823 829 832 834 836 837 838 839 841 842 843 844 844 845 845 846 847 848 849 848 849 849 849 849 849 848 848 847
789 787 783 768 777 781 781 775 785 779 775 774 778 782 787 802 802 814 817 821 823 826 831 833 835 837 838 839 841 842 844 845 846 847 848 848 849 850 850 850 850 850 850 850 850 849 849 849 848
787 786 775 771 772 779 776 775 778 777 774 776 783 779 790 807 809 811 815 821 824 829 832 835 837 839 840 841 843 844 845 847 848 849 850 851 851 852 853 852 852 852 851 851 851 850 849 849 849
784 778 770 778 778 771 769 766 768 774 773 774 779 796 800 808 809 814 819 822 826 829 833 836 838 841 843 843 844 846 847 848 850 851 852 852 853 853 854 854 853 853 852 852 852 850 850 849 848
782 770 778 777 773 770 767 766 763 770 779 777 778 795 806 818 815 818 822 824 827 832 834 838 840 842 843 844 846 848 849 850 851 852 853 854 854 855 854 854 854 853 852 852 852 851 850 849 848
776 770 783 780 770 771 767 763 768 774 779 780 782 793 818 820 817 820 823 826 829 833 836 839 841 843 844 846 847 849 850 851 851 852 852 854 854 854 854 854 854 853 852 851 851 851 850 849 848
779 773 776 771 769 770 768 762 771 772 777 788 778 792 817 818 817 821 823 827 830 836 839 840 842 844 844 846 848 849 851 851 852 852 852 853 853 853 854 853 853 852 851 851 850 850 849 848 847
771 770 773 770 771 769 768 766 765 772 785 787 782 796 812 813 818 822 826 831 832 837 840 842 843 845 846 847 848 849 851 851 851 852 852 852 854 854 854 854 853 852 851 850 850 849 848 847 846
770 781 777 767 768 760 764 771 771 774 785 786 786 781 795 810 816 821 826 831 836 838 840 841 843 844 845 847 848 850 851 851 851 852 853 853 854 855 855 853 853 852 851 850 850 849 848 847 846
774 777 768 748 749 755 762 763 776 781 785 791 790 796 804 810 812 815 820 825 831 835 837 840 842 843 845 846 848 850 851 852 853 854 853 854 854 854 854 853 852 852 851 850 850 849 848 847 846
769 772 754 751 755 756 757 764 769 775 784 782 796 802 804 808 811 813 817 823 829 833 837 839 842 843 844 845 847 849 850 851 853 853 853 853 853 853 853 853 852 852 851 851 850 849 848 847 846
775 763 756 753 759 763 762 758 772 772 778 778 791 801 802 807 808 812 820 827 831 833 837 839 841 843 844 845 845 847 848 850 851 852 852 853 852 852 852 852 852 851 851 850 849 848 847 846 845
771 758 758 758 762 764 761 767 773 786 783 787 799 803 804 807 812 818 824 828 831 834 837 839 841 842 843 843 845 846 848 850 850 850 850 851 853 852 851 851 851 850 849 849 848 847 845 844 843
757 759 762 763 761 766 771 777 777 790 789 794 803 809 811 811 816 822 827 829 831 834 837 840 841 842 843 842 843 846 848 849 850 849 849 848 851 851 852 851 850 849 848 847 847 845 844 843 842
763 772 769 767 766 768 768 787 784 783 788 794 802 813 817 818 819 822 826 829 832 835 837 839 840 841 842 842 842 846 847 847 848 849 849 849 850 849 850 850 849 848 847 846 845 844 843 842 840
769 766 773 759 767 768 773 770 769 784 785 792 799 813 819 822 821 824 828 830 833 835 836 838 840 840 841 842 843 844 846 847 848 849 849 849 850 849 850 850 848 847 847 846 845 843 842 840 839
765 771 769 763 758 763 771 763 769 778 783 789 797 809 815 819 825 827 829 830 833 835 836 838 839 839 841 841 843 844 844 847 848 849 849 848 849 849 850 850 848 847 847 846 844 843 842 840 838
766 772 760 764 757 764 766 757 770 777 780 785 790 798 810 815 820 824 828 830 833 834 835 838 839 840 841 840 843 844 846 847 848 850 849 848 848 848 849 850 848 848 847 846 843 842 842 841 837
761 762 762 752 744 763 761 758 759 774 778 780 785 792 798 805 814 822 825 828 831 834 835 834 836 838 839 839 842 843 846 847 848 849 849 848 846 846 848 850 850 850 849 846 844 843 842 841 837
767 769 767 756 750 762 757 757 747 763 771 770 777 785 793 800 810 817 822 825 828 829 832 834 835 838 838 840 842 844 846 847 848 848 851 850 848 848 850 851 848 849 852 849 845 845 843 843 840
767 769 765 765 756 759 761 760 749 744 761 766 768 774 783 791 801 809 816 820 823 826 829 831 833 835 837 839 841 843 845 846 848 850 854 850 850 849 850 853 852 847 853 853 850 849 846 845 843
769 753 760 761 765 774 751 774 744 740 752 760 761 766 771 781 792 801 810 816 819 824 828 831 833 835 837 839 841 842 842 845 849 853 854 853 853 850 852 854 853 843 855 855 855 852 849 846 845
760 745 750 754 759 761 754 766 747 728 737 742 749 751 758 769 783 795 805 811 816 822 826 831 833 835 837 839 841 842 843 847 850 853 854 855 854 855 856 855 852 854 857 857 856 853 850 849 848
742 752 755 755 756 769 754 753 749 736 735 733 728 732 746 761 777 793 803 809 815 820 825 830 833 836 838 839 841 843 845 848 849 851 853 854 856 858 859 858 857 857 857 858 856 854 852 851 850
746 757 771 770 765 763 736 742 735 723 715 722 723 726 734 756 775 790 801 807 812 817 823 828 832 836 839 840 843 845 846 849 852 852 852 854 856 859 860 860 860 860 859 858 857 856 855 854 853
749 748 759 773 757 738 714 733 727 717 731 738 738 739 739 759 774 789 801 805 809 816 822 827 832 836 840 842 844 847 848 848 852 854 854 855 857 859 861 861 860 860 861 860 859 857 856 855 854
749 757 736 751 741 744 726 713 727 730 738 744 742 740 752 765 775 789 799 806 811 817 823 827 832 836 840 842 845 847 849 850 853 856 857 855 858 860 862 862 862 861 862 862 862 860 857 856 855
750 737 760 745 770 762 730 725 716 731 738 748 753 754 761 771 781 792 801 807 812 819 825 829 834 837 841 844 846 847 850 853 856 857 858 857 858 860 861 863 864 862 862 862 861 861 859 858 857
749 762 748 744 745 751 748 730 728 740 743 748 754 759 765 774 785 795 804 810 814 820 825 831 835 839 842 845 847 848 851 854 857 860 859 859 860 861 862 862 863 864 863 862 862 860 861 859 859
749 750 746 753 752 737 733 735 744 752 752 752 756 760 767 776 787 796 806 811 816 821 826 832 835 839 844 848 851 851 851 854 856 860 862 862 862 862 864 862 862 864 864 863 862 861 862 860 860